Wind_Speed
142 143 144 145 146 147 148 149 150 151 151 152 152 153 154 154 155 155 156 156 157 157 157 156 156 156 155 154 154 153 152 151 150 150 149 148 147 147 146 145 144 144 146 147 147 146 145 144 143 142 141 141 141 140 140 140 140 140 139 139 138 138 138
141 142 143 144 146 147 148 149 150 151 151 152 153 153 154 154 155 155 156 157 157 158 158 158 158 158 157 156 156 155 154 153 152 151 151 150 149 148 147 146 145 144 145 146 146 145 144 143 143 142 142 141 141 141 141 141 140 140 139 138 137 137 136
138 139 141 142 143 144 145 146 147 148 149 150 150 151 152 152 153 153 154 155 156 157 157 158 158 158 158 158 157 157 156 155 154 153 153 152 151 150 149 147 146 145 145 146 146 146 144 143 142 141 141 141 141 141 141 141 141 140 139 138 137 137 136
136 136 137 138 140 141 142 143 144 144 145 146 147 148 148 149 149 149 150 151 152 152 153 154 155 155 156 156 156 156 156 155 155 154 154 153 152 151 150 149 147 145 145 146 147 146 145 143 141 141 141 141 141 141 140 140 141 141 140 140 139 138 137
133 133 134 134 135 136 137 138 139 140 141 142 142 143 143 144 145 145 146 147 147 148 148 148 149 150 150 151 151 152 152 152 152 152 152 152 151 151 150 149 147 146 144 145 146 146 144 143 142 142 142 141 141 141 140 140 140 140 140 140 139 139 138
129 130 130 130 131 131 132 133 134 135 135 136 136 137 138 138 139 139 140 141 142 142 142 143 143 144 144 145 145 145 146 146 146 146 147 147 147 147 146 146 145 144 143 143 144 144 143 141 141 141 142 142 141 141 140 140 140 140 140 139 139 139 139
124 124 125 125 125 126 126 127 128 128 129 130 130 130 131 131 132 133 134 135 136 136 137 137 137 137 138 138 138 139 139 140 140 140 141 141 141 141 141 141 141 140 139 140 140 140 140 139 138 138 139 140 140 140 140 139 139 139 139 139 139 139 139
119 119 119 119 119 119 120 120 121 122 122 123 124 124 124 125 126 127 128 129 130 130 131 131 131 130 130 131 131 132 132 133 133 134 134 135 135 135 135 135 136 135 135 135 136 136 136 135 135 135 136 137 137 138 138 137 137 137 137 138 139 139 140
114 114 114 114 114 114 114 114 114 115 115 116 117 117 117 118 119 120 122 123 124 125 126 126 125 124 123 124 126 126 126 126 127 127 128 128 128 129 129 129 130 130 130 130 131 131 132 132 132 131 132 133 134 135 134 134 134 134 135 136 137 138 138
110 110 110 110 110 110 110 110 110 109 109 110 110 111 111 111 112 114 116 118 119 120 121 121 120 119 118 119 120 121 121 121 122 122 123 123 123 123 123 124 124 124 125 125 125 126 127 127 128 128 129 130 131 132 132 132 132 132 132 133 134 135 136
106 106 106 105 106 106 107 107 106 106 105 105 105 105 105 105 106 108 110 112 114 116 117 117 116 115 114 114 115 116 117 117 117 117 118 119 119 119 119 119 119 119 120 120 120 121 121 122 123 124 125 126 127 127 128 129 129 129 130 131 132 133 134
102 101 101 101 101 101 102 102 102 102 101 100 100 100 100 99 100 103 105 108 110 111 112 112 112 112 111 110 110 111 113 114 114 114 114 115 115 116 116 115 115 115 116 116 116 116 117 118 119 119 120 121 122 123 123 124 125 126 128 128 130 131 132
98 97 96 96 95 96 97 97 97 97 96 96 96 95 94 94 95 98 101 103 105 107 107 107 107 108 107 107 106 106 108 109 111 111 111 112 112 113 113 112 112 112 112 112 112 113 113 113 114 115 116 116 117 118 119 120 121 123 124 125 126 128 129
94 94 93 92 91 92 92 93 92 92 93 93 92 91 90 89 91 94 97 99 101 101 101 102 103 103 103 103 102 102 103 104 106 107 107 108 109 110 109 110 110 110 110 110 110 110 110 110 110 111 111 112 113 114 115 116 118 120 121 121 122 124 126
91 91 90 89 88 88 89 89 88 88 89 89 89 88 87 87 89 91 93 95 97 97 97 98 99 99 99 99 99 98 98 99 100 102 103 105 106 106 106 107 107 107 107 107 107 107 107 107 107 107 107 108 109 110 111 113 115 116 117 118 119 120 122
89 88 88 87 86 85 86 86 85 84 85 86 85 85 84 85 87 89 90 92 93 93 93 94 95 95 96 96 96 95 94 94 95 96 99 101 102 102 103 104 105 105 104 104 104 104 105 104 104 104 105 105 106 107 108 109 111 113 113 114 116 117 118
87 87 85 85 84 83 83 83 82 81 82 82 81 81 81 82 85 87 88 89 90 90 90 91 92 93 94 94 94 93 92 90 90 91 94 96 98 99 100 101 102 101 101 101 101 101 102 102 102 102 103 103 103 104 105 107 108 109 110 111 112 114 115
85 85 83 82 81 80 80 80 80 79 79 79 78 77 77 79 81 84 86 86 87 86 87 88 89 90 91 92 92 91 90 88 87 87 89 91 94 97 98 99 98 98 98 99 98 98 98 99 100 101 101 101 101 101 103 104 105 106 107 108 109 110 112
83 83 81 79 78 77 77 77 77 76 76 76 75 74 74 76 78 80 83 84 84 84 83 84 86 87 89 90 91 90 88 86 85 84 85 87 91 94 95 95 95 95 96 96 95 95 96 97 98 98 98 99 99 99 100 101 102 103 104 105 106 107 108
80 79 79 77 75 74 74 73 74 73 72 72 72 71 71 72 74 76 78 81 82 81 80 80 82 84 85 87 88 88 87 85 83 82 83 86 88 90 91 91 92 94 94 93 93 94 94 95 95 95 96 97 97 97 98 99 99 100 102 103 103 104 105
75 75 75 73 72 71 70 70 70 70 70 69 69 69 68 69 70 72 74 77 79 79 78 78 78 79 81 83 85 86 85 84 82 81 81 83 85 85 87 89 90 91 92 91 91 92 92 92 93 93 94 94 95 96 96 97 97 98 99 100 102 102 103
71 71 71 69 68 66 66 66 67 67 67 67 67 66 65 65 67 68 70 73 75 76 76 76 76 76 77 79 81 82 82 82 81 79 79 80 81 82 84 86 87 89 90 90 90 90 90 90 90 91 91 92 93 94 94 95 95 95 96 98 99 101 102
68 68 67 66 64 63 62 63 63 64 65 65 65 64 62 62 63 65 67 69 72 73 73 74 74 74 74 75 77 78 79 79 78 78 78 78 79 80 82 83 85 86 87 88 88 89 89 89 89 89 89 90 91 92 92 93 93 93 94 96 97 98 100
65 65 64 64 62 61 59 60 60 61 61 62 62 61 59 59 60 61 63 66 68 70 70 71 72 71 71 72 73 75 76 76 76 76 76 76 76 77 79 81 82 84 85 86 87 87 87 87 87 87 88 88 88 89 90 90 91 92 92 93 95 96 97
61 61 61 61 60 59 57 57 58 57 58 59 59 58 57 57 57 58 60 62 64 66 67 68 68 68 67 67 69 71 72 73 73 73 73 74 74 75 77 78 80 81 82 84 85 85 86 86 86 86 86 87 87 87 88 88 89 90 91 91 92 94 95
58 58 58 57 57 57 56 55 55 55 55 55 55 55 55 55 55 56 57 59 61 63 64 65 65 65 64 63 65 67 69 70 71 70 70 71 71 72 74 75 77 79 80 82 83 84 84 85 85 85 85 85 86 86 86 86 87 88 89 89 90 91 93
55 55 54 54 54 54 54 53 53 52 52 52 52 52 52 53 53 54 55 56 58 60 61 62 62 62 61 61 62 64 66 67 68 68 68 69 69 69 71 72 74 76 77 79 80 81 83 83 84 83 84 84 85 85 85 85 86 87 87 88 88 90 91
51 51 51 50 50 51 51 51 50 50 50 50 49 49 50 50 50 51 52 53 55 57 58 59 59 59 59 60 60 61 62 64 65 66 67 67 67 68 68 70 71 73 74 76 77 79 80 81 82 82 82 83 84 84 84 84 85 86 86 86 87 88 90
48 48 48 47 47 47 47 47 47 47 47 47 47 47 47 48 48 49 49 51 52 53 55 56 56 57 57 58 59 59 60 61 62 63 64 64 65 65 66 67 69 70 71 73 74 76 78 79 79 80 81 81 82 83 83 83 84 85 85 85 86 87 88
45 45 45 45 45 44 44 44 44 44 44 44 44 44 45 45 46 46 47 48 49 51 52 53 54 54 55 56 56 57 58 58 60 61 62 62 62 63 63 65 66 67 69 70 72 74 75 76 77 78 79 79 80 81 82 82 83 83 84 85 85 86 87
44 43 43 43 43 43 42 42 42 42 42 41 41 42 42 43 43 44 45 46 47 48 49 50 51 52 53 54 54 55 56 57 57 58 59 60 60 60 61 62 63 65 66 68 70 71 72 73 75 76 76 77 78 79 80 81 81 82 83 83 84 85 86
42 42 42 42 41 41 41 41 41 40 40 40 40 40 41 41 41 42 43 44 45 46 47 48 48 49 51 51 52 53 54 55 55 57 58 58 58 58 59 59 60 62 64 66 67 69 70 71 72 73 74 75 76 77 78 79 79 80 81 82 83 84 85
40 40 40 40 40 40 40 40 40 40 40 40 40 40 41 41 41 41 41 42 43 44 45 46 47 48 48 49 50 51 51 52 53 55 56 57 57 57 58 58 59 60 61 63 64 66 67 69 69 70 72 73 74 75 76 77 77 78 79 80 81 82 83
40 40 40 40 40 39 39 39 39 39 39 39 39 40 40 41 42 42 42 42 42 43 43 44 45 46 47 48 48 49 50 50 51 52 54 54 55 56 57 57 57 58 59 60 61 63 65 66 67 68 69 70 71 73 74 75 76 76 76 77 79 80 81
39 40 40 41 41 41 40 40 40 39 39 38 39 39 39 39 40 41 42 43 43 43 43 43 43 44 45 46 47 48 49 49 49 50 51 52 53 54 55 56 57 57 58 58 59 61 62 63 64 65 66 68 69 70 71 73 73 73 74 75 76 77 78
36 36 37 39 40 40 40 41 41 41 41 40 40 40 40 40 40 40 41 42 43 44 44 44 44 43 44 45 45 47 48 48 49 49 50 50 51 52 53 54 55 56 57 57 58 59 60 61 62 63 64 65 67 68 69 70 70 71 71 72 73 74 75
Wind_Direction
271 270 270 270 269 269 269 268 268 268 268 267 267 267 267 267 267 267 267 267 268 268 268 268 268 268 268 268 268 268 268 267 267 267 266 266 266 265 265 264 263 263 263 263 263 263 263 263 263 263 263 263 263 263 263 263 263 263 263 264 264 264 264
271 271 270 270 270 269 269 269 268 268 268 268 268 267 267 267 267 267 267 267 267 267 267 267 268 268 268 268 268 268 268 268 268 268 267 267 266 266 265 265 264 264 264 264 263 263 262 262 262 262 262 262 262 263 263 263 263 263 263 263 263 263 264
272 271 271 271 270 270 270 269 269 269 269 268 268 268 268 267 267 267 267 267 267 267 267 267 267 267 267 268 268 268 268 268 268 268 268 267 267 267 266 266 265 265 264 264 264 263 263 262 262 262 262 261 261 262 262 262 263 263 263 263 263 263 263
273 272 272 271 271 271 270 270 270 269 269 269 269 269 269 268 268 268 268 267 267 267 267 267 267 267 267 267 267 267 267 267 267 267 267 267 267 267 267 266 266 265 264 264 264 264 263 263 263 262 262 261 261 261 261 261 261 262 262 262 262 262 262
274 273 273 272 272 271 271 271 270 270 270 270 269 269 269 269 269 269 268 268 268 268 267 267 267 267 267 267 266 266 266 266 267 267 267 267 267 267 266 266 266 265 265 264 264 264 263 263 263 263 262 262 261 261 261 261 261 261 261 261 262 262 262
275 275 274 274 273 273 272 272 271 271 271 270 270 270 270 269 269 269 269 269 268 268 268 267 267 267 267 267 267 267 266 266 266 266 266 266 266 266 265 265 265 265 265 264 264 263 263 263 262 262 262 262 261 261 260 260 260 260 260 260 261 261 261
276 276 275 274 274 273 273 272 272 271 271 271 270 270 270 270 270 269 269 269 269 268 268 268 267 267 267 267 267 267 266 266 266 266 266 265 265 265 265 265 264 264 264 263 263 263 263 262 262 261 261 261 261 260 260 260 259 259 259 260 260 260 260
278 277 276 275 274 274 273 272 272 272 271 271 271 270 270 270 270 269 269 269 269 268 268 268 267 267 267 267 266 266 266 266 266 266 266 265 265 265 264 264 264 264 263 263 263 262 262 262 261 261 260 260 260 260 259 259 259 259 259 259 259 259 259
279 278 278 277 276 275 274 273 272 272 271 271 271 270 270 270 269 269 269 269 268 268 268 268 267 267 267 266 266 266 266 266 265 265 265 265 265 264 264 264 263 263 263 262 262 262 261 261 261 260 260 260 259 259 259 259 258 258 258 258 258 258 258
280 279 279 278 278 277 276 275 274 273 272 272 271 271 270 270 269 269 269 268 268 268 267 268 268 267 267 266 266 266 266 265 265 265 265 265 264 264 264 263 263 263 262 262 261 261 261 261 260 260 259 259 259 259 259 258 258 258 257 257 257 257 257
280 280 279 278 278 277 277 276 275 274 273 272 272 271 270 270 269 269 268 268 267 267 267 267 267 267 266 266 266 265 266 265 265 265 265 264 264 264 264 263 263 262 262 261 261 260 260 260 259 259 259 259 258 258 258 258 258 257 257 257 256 256 256
281 280 279 279 278 278 277 277 276 275 274 273 272 272 271 270 270 269 268 267 267 267 267 267 267 266 266 265 265 265 265 265 265 265 264 264 264 264 263 263 263 262 262 261 261 260 260 259 259 258 258 258 258 258 257 257 257 257 257 256 256 256 255
282 281 280 279 279 278 278 277 277 276 276 275 273 272 272 271 270 270 269 268 267 267 267 266 266 266 265 265 264 263 263 264 264 264 264 263 263 263 263 263 263 262 262 261 261 260 259 259 258 258 258 257 257 257 257 257 256 256 256 256 255 255 255
283 282 281 281 280 279 278 278 277 277 276 276 275 274 273 272 271 270 269 269 268 268 267 267 266 266 265 265 264 263 262 262 263 263 263 263 262 262 262 262 262 262 261 261 261 260 260 259 259 258 258 257 257 257 256 256 256 255 255 255 255 255 255
284 283 283 282 281 280 279 278 278 277 277 276 275 275 274 272 271 270 270 269 269 268 268 268 267 267 266 265 264 263 262 262 262 263 263 262 262 262 262 262 261 261 261 261 260 260 260 259 259 258 258 257 257 256 256 256 255 255 255 255 254 254 254
285 285 284 283 282 281 280 279 278 277 277 276 275 275 274 273 272 271 270 269 269 269 268 268 268 267 267 266 265 264 263 262 262 262 263 263 263 262 262 261 261 261 260 260 260 260 259 259 259 258 257 257 257 256 256 255 255 255 254 254 254 254 254
286 285 285 284 284 283 282 281 280 279 277 276 275 275 274 273 272 271 270 269 269 269 268 268 268 268 267 267 266 265 264 263 262 262 262 263 263 263 262 261 261 261 261 260 260 259 259 259 258 258 257 256 256 256 255 255 255 254 254 254 253 253 253
287 287 286 285 285 284 283 282 281 280 279 278 276 275 274 273 272 271 270 270 269 268 268 268 268 268 267 267 267 266 265 264 263 262 262 262 263 262 262 262 262 262 261 260 260 259 259 259 258 258 257 256 256 256 255 255 255 254 254 254 253 253 253
289 288 287 287 286 285 284 283 282 280 279 278 277 275 274 273 271 271 271 270 270 269 268 267 267 267 267 267 267 266 265 264 263 262 262 261 261 262 262 262 262 261 261 260 260 260 259 258 258 258 257 257 256 255 255 255 255 255 254 254 253 253 253
289 288 288 287 286 285 284 283 282 281 280 278 277 275 274 272 271 271 271 270 270 269 268 267 267 267 267 267 266 266 266 265 263 262 261 261 260 261 262 262 262 261 261 260 260 259 259 258 258 257 257 257 256 255 254 254 254 254 254 254 254 253 253
289 288 287 287 286 286 285 284 283 282 280 278 277 275 274 273 271 271 270 270 270 269 269 267 266 266 266 266 266 266 266 265 264 262 261 261 261 261 261 261 261 261 261 261 260 259 259 258 258 257 257 257 256 256 255 254 254 253 253 254 254 253 253
290 289 288 287 287 286 286 284 283 282 281 279 277 276 275 274 273 271 270 270 270 269 269 268 267 266 265 265 265 266 266 265 264 263 262 261 261 260 260 260 261 261 261 260 260 259 259 258 258 257 257 256 256 256 255 255 254 253 253 253 253 253 253
292 291 290 289 288 287 286 285 284 283 282 281 279 278 277 276 274 273 272 271 270 270 269 268 267 266 266 265 265 265 266 265 265 264 262 261 260 260 259 259 260 260 260 260 260 259 259 258 257 257 256 256 256 256 255 255 254 253 253 252 252 252 253
293 293 292 292 291 289 288 287 285 284 283 283 282 281 279 277 276 275 274 273 272 271 270 269 269 268 268 267 267 266 266 266 265 264 263 262 261 260 259 259 259 259 259 259 259 259 259 258 258 257 256 256 255 255 255 255 254 254 253 252 252 252 252
295 294 294 294 293 292 290 289 287 286 285 284 283 282 281 279 277 276 275 274 273 273 272 271 270 270 269 268 268 268 267 267 266 265 264 263 262 261 260 259 259 259 259 259 259 259 259 259 258 257 257 256 256 255 255 254 254 254 253 253 252 252 251
297 296 296 296 295 294 293 292 290 289 288 286 285 284 283 281 279 277 276 275 274 274 273 273 272 272 270 269 268 268 268 267 266 265 264 263 262 261 261 260 259 259 259 259 259 259 259 259 258 258 257 257 257 256 255 254 254 254 254 253 253 253 252
299 298 298 298 297 296 295 294 293 292 290 289 287 286 284 282 281 279 278 276 276 275 275 274 274 273 272 270 269 268 267 267 267 266 265 264 262 261 260 260 259 259 259 259 259 259 259 258 258 258 257 257 257 256 256 255 254 254 254 253 253 253 253
301 300 300 299 299 298 297 296 295 294 292 291 290 288 286 284 283 281 279 278 277 277 276 276 275 274 273 272 270 269 268 268 267 267 266 265 263 262 261 260 259 259 259 259 259 259 259 258 258 258 258 257 257 256 256 256 255 255 254 254 254 254 254
304 303 302 301 300 299 299 298 297 296 295 294 292 291 289 287 285 283 281 280 279 278 277 277 276 276 274 273 272 271 270 269 268 267 267 266 265 264 263 262 261 260 259 259 259 259 258 258 258 258 258 257 257 257 256 256 256 255 255 255 254 254 254
306 305 305 304 303 302 301 300 299 298 297 296 295 293 291 290 288 286 284 282 281 280 279 278 278 277 276 275 274 273 271 270 269 268 268 267 266 265 264 263 262 262 261 260 259 259 259 259 258 258 258 257 257 257 257 256 256 255 255 255 255 254 254
310 309 308 308 307 306 305 303 302 301 300 299 297 295 293 292 290 288 287 285 283 282 281 280 279 279 278 277 276 275 273 272 271 270 269 268 267 266 265 264 263 263 262 261 260 259 259 259 258 258 258 257 257 257 257 256 256 256 255 255 255 255 254
313 312 311 310 309 308 307 306 305 304 303 302 300 298 296 294 292 291 289 288 286 285 283 282 281 280 279 278 277 276 275 274 273 272 271 270 269 267 266 265 264 263 262 262 262 261 261 260 259 259 258 258 257 257 257 256 256 255 255 255 255 255 255
315 314 313 313 312 312 311 310 309 309 308 306 304 302 300 298 295 293 291 290 289 287 286 285 283 282 281 280 279 278 277 276 275 274 273 272 271 269 268 266 265 264 263 262 262 262 262 261 261 260 260 259 258 258 257 256 255 255 255 255 255 255 254
319 318 317 317 317 316 315 314 313 312 311 309 308 306 304 302 300 298 296 293 291 290 288 287 286 285 283 282 281 279 278 277 276 275 274 273 273 271 270 269 267 265 264 263 262 262 262 262 262 261 261 260 260 259 258 257 256 256 255 255 255 255 255
325 324 323 323 323 322 321 320 318 316 315 312 310 308 306 304 302 301 299 297 295 293 291 289 288 286 285 284 283 282 280 279 277 276 275 274 273 272 272 270 269 268 266 265 263 262 262 262 261 261 261 261 261 260 259 259 258 257 256 256 255 255 255
328 328 328 328 327 327 326 325 324 322 320 318 315 313 310 308 306 304 302 300 299 297 295 293 291 289 287 286 285 283 282 281 279 278 276 275 274 273 272 271 270 269 268 267 266 264 263 262 262 261 260 260 260 260 260 259 259 259 258 257 256 256 255
Height
10177 10174 10171 10167 10164 10162 10159 10157 10155 10153 10152 10151 10150 10149 10148 10147 10147 10146 10145 10144 10143 10143 10144 10145 10145 10146 10147 10148 10150 10151 10153 10156 10158 10161 10163 10166 10170 10174 10179 10184 10188 10193 10192 10189 10193 10200 10206 10213 10219 10221 10225 10228 10229 10231 10233 10235 10238 10241 10244 10248 10251 10254 10256
10153 10150 10146 10143 10141 10138 10136 10134 10131 10129 10128 10127 10126 10125 10124 10124 10124 10123 10122 10121 10120 10119 10119 10120 10121 10122 10123 10124 10125 10127 10129 10131 10133 10136 10138 10140 10144 10147 10152 10157 10162 10168 10169 10167 10169 10175 10181 10190 10195 10197 10201 10206 10207 10210 10212 10214 10216 10219 10223 10228 10231 10234 10237
10130 10126 10123 10119 10116 10113 10111 10109 10107 10105 10103 10102 10102 10101 10100 10100 10100 10099 10098 10097 10097 10096 10096 10096 10096 10097 10099 10100 10101 10103 10105 10107 10108 10111 10113 10115 10119 10122 10125 10130 10136 10142 10146 10145 10145 10150 10156 10164 10171 10174 10178 10182 10185 10188 10191 10193 10195 10197 10201 10206 10210 10213 10217
10105 10102 10099 10096 10093 10090 10087 10085 10083 10081 10080 10078 10077 10077 10076 10075 10076 10076 10075 10073 10072 10073 10073 10074 10073 10074 10075 10076 10077 10079 10081 10083 10084 10086 10089 10091 10094 10097 10099 10103 10109 10116 10121 10122 10121 10125 10131 10139 10146 10150 10153 10157 10161 10164 10168 10172 10174 10177 10180 10184 10187 10190 10194
10081 10078 10076 10073 10070 10067 10064 10062 10060 10058 10057 10055 10054 10054 10053 10052 10052 10051 10050 10049 10048 10048 10050 10051 10051 10051 10052 10053 10054 10056 10058 10060 10061 10063 10065 10067 10069 10073 10076 10078 10082 10089 10095 10097 10097 10100 10107 10115 10121 10125 10128 10131 10135 10140 10144 10149 10153 10156 10160 10163 10166 10168 10172
10057 10054 10052 10050 10048 10045 10043 10040 10037 10035 10034 10032 10032 10031 10031 10030 10029 10029 10027 10025 10024 10024 10025 10027 10028 10028 10028 10030 10032 10033 10035 10036 10038 10040 10041 10044 10046 10049 10052 10055 10058 10064 10069 10072 10074 10076 10082 10090 10097 10101 10103 10106 10110 10115 10120 10125 10130 10134 10138 10142 10145 10147 10150
10035 10032 10030 10028 10025 10023 10020 10018 10015 10013 10012 10011 10010 10010 10010 10009 10008 10006 10004 10003 10001 10001 10001 10002 10005 10007 10007 10008 10009 10011 10012 10013 10015 10017 10018 10020 10023 10026 10029 10032 10035 10040 10044 10048 10051 10053 10058 10065 10072 10077 10079 10081 10085 10090 10095 10100 10106 10112 10116 10120 10123 10126 10128
10013 10010 10007 10005 10003 10001 9999 9997 9995 9993 9992 9991 9990 9990 9990 9990 9987 9985 9982 9981 9980 9979 9978 9978 9981 9986 9988 9988 9988 9989 9991 9992 9993 9995 9996 9998 10001 10004 10006 10009 10012 10016 10020 10024 10028 10031 10035 10040 10047 10052 10055 10057 10060 10064 10070 10076 10083 10089 10094 10097 10100 10104 10107
9992 9989 9986 9983 9981 9979 9977 9976 9975 9973 9972 9971 9970 9970 9971 9971 9969 9965 9962 9959 9958 9957 9956 9955 9958 9965 9969 9969 9967 9968 9969 9971 9972 9974 9975 9976 9978 9981 9984 9987 9990 9993 9997 10001 10005 10008 10013 10017 10022 10028 10032 10034 10036 10040 10046 10053 10059 10064 10070 10074 10077 10081 10085
9973 9970 9967 9964 9961 9958 9956 9954 9954 9954 9953 9953 9951 9951 9952 9952 9950 9947 9942 9939 9936 9935 9934 9935 9938 9944 9949 9949 9948 9948 9949 9950 9952 9954 9955 9956 9957 9960 9963 9966 9968 9971 9975 9979 9982 9986 9991 9994 9999 10004 10008 10010 10014 10018 10023 10029 10035 10040 10046 10051 10054 10058 10063
9955 9952 9949 9947 9943 9939 9936 9933 9933 9934 9934 9934 9933 9933 9934 9934 9932 9928 9924 9919 9916 9913 9914 9917 9920 9924 9928 9930 9931 9930 9929 9930 9932 9934 9936 9937 9937 9939 9942 9945 9948 9950 9953 9957 9961 9965 9969 9972 9976 9981 9985 9988 9992 9996 10001 10007 10012 10017 10022 10027 10031 10034 10040
9937 9934 9931 9929 9927 9923 9919 9915 9914 9915 9915 9915 9915 9915 9917 9918 9915 9909 9904 9899 9896 9895 9897 9899 9901 9903 9907 9911 9913 9913 9912 9911 9913 9915 9917 9918 9919 9919 9921 9925 9929 9931 9933 9936 9940 9944 9947 9952 9955 9959 9963 9968 9971 9976 9981 9986 9990 9994 9998 10002 10007 10011 10014
9920 9917 9915 9913 9911 9907 9903 9899 9898 9897 9897 9897 9897 9897 9900 9902 9898 9890 9885 9881 9878 9879 9881 9882 9883 9884 9887 9891 9895 9896 9895 9894 9894 9896 9898 9899 9900 9901 9903 9906 9909 9912 9914 9917 9921 9924 9927 9932 9936 9938 9943 9949 9953 9956 9961 9965 9969 9971 9975 9979 9984 9988 9989
9903 9900 9898 9897 9895 9891 9887 9884 9883 9882 9880 9879 9879 9880 9883 9885 9880 9872 9867 9865 9862 9863 9865 9865 9865 9867 9868 9871 9876 9878 9879 9878 9878 9879 9881 9882 9882 9883 9886 9889 9890 9892 9895 9898 9902 9904 9908 9913 9917 9920 9925 9930 9934 9937 9941 9945 9947 9949 9953 9958 9963 9966 9967
9886 9883 9881 9880 9878 9875 9871 9868 9868 9868 9865 9862 9862 9864 9866 9866 9861 9855 9851 9849 9846 9847 9849 9848 9848 9850 9851 9853 9856 9860 9863 9863 9864 9864 9864 9864 9864 9866 9869 9870 9871 9874 9877 9880 9884 9886 9890 9895 9898 9903 9907 9910 9914 9918 9922 9924 9926 9929 9934 9939 9942 9945 9947
9870 9867 9865 9863 9862 9860 9856 9853 9853 9853 9850 9847 9848 9849 9849 9847 9843 9839 9836 9833 9831 9832 9834 9833 9832 9833 9834 9834 9836 9841 9846 9849 9850 9851 9848 9846 9847 9850 9851 9852 9853 9856 9860 9864 9867 9869 9873 9877 9880 9885 9889 9891 9895 9900 9903 9904 9905 9909 9915 9920 9923 9926 9928
9854 9852 9850 9849 9846 9845 9842 9838 9838 9838 9835 9833 9834 9835 9834 9831 9826 9822 9819 9817 9817 9818 9819 9819 9818 9817 9817 9817 9819 9823 9828 9833 9837 9838 9835 9832 9832 9832 9832 9833 9836 9840 9844 9848 9851 9853 9856 9860 9862 9866 9870 9873 9877 9881 9884 9885 9886 9890 9896 9900 9904 9907 9909
9840 9837 9836 9836 9833 9831 9828 9825 9823 9823 9822 9819 9819 9821 9819 9815 9811 9807 9804 9803 9803 9805 9806 9805 9804 9803 9801 9801 9802 9806 9811 9817 9821 9823 9823 9820 9817 9814 9813 9817 9822 9826 9827 9830 9834 9838 9841 9843 9844 9847 9852 9857 9861 9864 9865 9866 9869 9873 9877 9881 9886 9889 9891
9826 9823 9821 9822 9821 9818 9815 9812 9809 9808 9808 9806 9805 9806 9804 9800 9796 9793 9790 9788 9788 9790 9793 9793 9791 9789 9788 9787 9787 9789 9795 9801 9805 9808 9809 9806 9801 9798 9799 9804 9808 9808 9809 9813 9819 9822 9824 9825 9827 9831 9835 9839 9843 9846 9848 9849 9853 9856 9858 9863 9868 9871 9873
9814 9810 9807 9807 9807 9804 9802 9799 9795 9794 9793 9792 9790 9790 9790 9786 9783 9781 9777 9774 9773 9775 9779 9780 9778 9777 9775 9774 9773 9774 9778 9784 9789 9793 9794 9789 9786 9787 9789 9790 9790 9789 9792 9799 9803 9804 9806 9809 9812 9816 9818 9821 9824 9828 9831 9834 9837 9840 9842 9845 9849 9853 9856
9803 9798 9794 9794 9794 9792 9789 9786 9783 9779 9779 9778 9775 9775 9776 9773 9770 9769 9765 9760 9758 9761 9763 9764 9765 9764 9763 9761 9760 9760 9763 9768 9773 9778 9778 9775 9775 9778 9777 9775 9775 9775 9778 9782 9785 9787 9790 9793 9797 9800 9802 9805 9807 9810 9814 9817 9821 9825 9827 9829 9831 9834 9837
9790 9786 9782 9782 9782 9780 9777 9773 9770 9766 9764 9763 9762 9762 9763 9762 9759 9757 9753 9748 9746 9747 9748 9749 9750 9751 9750 9749 9748 9747 9750 9753 9757 9761 9763 9763 9764 9765 9764 9762 9762 9762 9763 9766 9769 9771 9774 9777 9781 9784 9787 9789 9791 9793 9797 9801 9805 9809 9811 9813 9815 9817 9819
9778 9774 9771 9770 9770 9769 9765 9761 9758 9755 9751 9749 9749 9751 9752 9751 9748 9745 9742 9737 9734 9734 9735 9735 9735 9737 9739 9738 9737 9736 9737 9740 9743 9746 9749 9750 9751 9751 9750 9750 9749 9749 9750 9751 9753 9755 9758 9762 9765 9768 9771 9774 9776 9778 9781 9784 9788 9792 9795 9797 9799 9801 9803
9768 9764 9761 9759 9757 9757 9755 9750 9746 9744 9741 9739 9738 9739 9740 9740 9737 9734 9730 9727 9724 9722 9722 9722 9723 9726 9728 9727 9726 9726 9726 9727 9729 9732 9734 9735 9737 9738 9737 9737 9736 9737 9737 9738 9738 9741 9743 9746 9750 9752 9755 9758 9761 9763 9766 9768 9772 9775 9778 9780 9783 9786 9788
9759 9755 9751 9749 9746 9745 9743 9740 9736 9734 9732 9729 9728 9728 9728 9727 9726 9723 9720 9716 9713 9711 9710 9710 9712 9714 9717 9718 9716 9714 9714 9714 9715 9718 9720 9722 9723 9724 9725 9725 9724 9724 9725 9725 9725 9727 9729 9731 9735 9738 9740 9743 9746 9748 9751 9754 9756 9758 9761 9765 9767 9770 9772
9750 9746 9743 9740 9737 9734 9732 9730 9727 9725 9723 9720 9718 9717 9717 9715 9714 9712 9710 9707 9703 9701 9699 9699 9700 9702 9705 9707 9705 9703 9701 9701 9702 9704 9706 9708 9710 9711 9712 9712 9712 9712 9712 9712 9712 9714 9715 9717 9720 9723 9726 9728 9730 9733 9737 9740 9742 9743 9746 9749 9752 9754 9756
9741 9738 9735 9732 9729 9725 9722 9720 9718 9716 9714 9711 9709 9708 9707 9705 9703 9702 9700 9697 9694 9691 9690 9690 9690 9691 9693 9694 9693 9692 9690 9689 9689 9691 9692 9694 9696 9697 9698 9699 9699 9699 9699 9700 9700 9701 9702 9703 9706 9709 9712 9714 9715 9718 9721 9725 9727 9729 9731 9735 9737 9738 9739
9733 9730 9728 9725 9721 9717 9714 9711 9709 9706 9704 9702 9701 9699 9697 9695 9693 9692 9690 9688 9685 9682 9681 9680 9680 9680 9681 9681 9680 9680 9680 9679 9678 9678 9679 9680 9682 9684 9685 9686 9686 9687 9687 9687 9688 9688 9688 9690 9693 9695 9697 9699 9701 9703 9706 9710 9712 9714 9717 9720 9722 9723 9724
9727 9723 9720 9717 9714 9711 9707 9704 9701 9698 9696 9694 9692 9690 9688 9686 9684 9683 9681 9678 9676 9674 9672 9671 9670 9670 9670 9669 9668 9669 9669 9669 9668 9667 9667 9668 9670 9671 9672 9673 9674 9674 9675 9675 9675 9675 9675 9677 9679 9681 9683 9685 9687 9689 9692 9695 9698 9699 9702 9705 9707 9709 9710
9721 9717 9713 9710 9707 9704 9701 9698 9694 9691 9688 9686 9684 9682 9679 9677 9676 9674 9672 9670 9668 9665 9664 9662 9661 9660 9659 9658 9658 9658 9658 9658 9657 9656 9656 9657 9658 9659 9660 9661 9661 9662 9663 9663 9662 9662 9663 9664 9665 9667 9669 9671 9673 9675 9678 9681 9683 9685 9687 9690 9692 9694 9695
9714 9711 9707 9704 9700 9697 9694 9691 9688 9685 9682 9679 9677 9674 9672 9669 9667 9665 9663 9661 9660 9657 9655 9654 9653 9651 9650 9649 9648 9648 9647 9647 9646 9646 9646 9646 9647 9648 9649 9650 9650 9650 9650 9649 9649 9650 9651 9652 9652 9654 9655 9657 9659 9661 9663 9666 9669 9671 9673 9675 9678 9679 9680
9709 9705 9702 9698 9695 9692 9688 9685 9682 9679 9676 9673 9670 9667 9665 9662 9660 9658 9655 9653 9651 9649 9647 9646 9644 9643 9641 9640 9639 9638 9637 9637 9636 9635 9634 9635 9636 9637 9638 9638 9638 9638 9638 9637 9637 9638 9639 9639 9640 9641 9642 9643 9645 9647 9649 9652 9654 9657 9659 9661 9663 9664 9666
9705 9701 9697 9693 9690 9687 9683 9680 9676 9673 9670 9667 9664 9661 9658 9655 9653 9651 9649 9646 9644 9642 9639 9637 9636 9634 9633 9631 9630 9629 9628 9627 9626 9625 9624 9624 9624 9625 9626 9626 9626 9627 9627 9626 9626 9626 9626 9627 9628 9629 9630 9631 9632 9633 9635 9636 9639 9643 9645 9647 9648 9650 9652
9701 9697 9693 9689 9685 9682 9679 9676 9672 9669 9666 9663 9659 9656 9653 9650 9646 9644 9641 9639 9637 9635 9633 9630 9628 9626 9624 9622 9621 9620 9618 9617 9616 9615 9614 9614 9614 9613 9614 9614 9615 9615 9615 9616 9615 9615 9615 9615 9616 9617 9617 9618 9619 9620 9621 9622 9625 9629 9632 9633 9635 9636 9638
9698 9693 9689 9685 9681 9678 9674 9671 9668 9664 9661 9658 9655 9651 9648 9645 9642 9638 9635 9632 9629 9627 9625 9623 9621 9619 9617 9614 9612 9611 9609 9608 9607 9606 9605 9604 9604 9603 9602 9602 9603 9603 9603 9604 9604 9604 9604 9604 9604 9605 9605 9606 9606 9606 9608 9609 9611 9615 9618 9621 9622 9623 9624
9697 9693 9688 9683 9679 9675 9671 9667 9664 9660 9656 9653 9650 9646 9643 9640 9636 9633 9630 9627 9623 9620 9617 9615 9613 9612 9610 9607 9605 9603 9601 9599 9598 9597 9596 9595 9594 9593 9592 9592 9591 9591 9591 9591 9592 9593 9592 9592 9592 9593 9593 9594 9593 9593 9595 9596 9598 9601 9604 9607 9609 9610 9612